Location: Berlin
(52.5170°N, 13.3889°E)
Time: 22:38:28
(UTC+02:00)

LES 1 - Pass Details

Date: 17 June 2025
Orbit: 2779 x 2808 km, 32.1° (Epoch: 12 July)

Event Time Altitude Azimuth Distance (km) Brightness Sun altitude
Rises 22:45:23 0° 215° (SW) 6,565 12.0 -8.0°
Reaches altitude 10° 22:50:40 10° 204° (SSW) 5,546 11.6 -8.4°
Maximum altitude 23:02:24 26° 155° (SSE) 4,373 10.8 -9.3°
Drops below altitude 10° 23:14:07 10° 106° (ESE) 5,562 11.5 -10.2°
Sets 23:19:23 0° 95° (E) 6,587 12.0 -10.5°
